Home   Weather   Acworth   Past weeks

Flag for USA Past Weather in Acworth, Georgia, USA — Yesterday and Last 2 Weeks

Now
58 °F

Mostly cloudy.


Feels Like: 58 °F
Forecast: 54 / 72 °F
Wind: 3 mph from North

Location: Cartersville Airport

Current Time: May 25, 2017 at 3:01:13 am

Latest Report: May 25, 2017 at 2:38 am


Visibility: 10 mi

Pressure: 29.63 "Hg

Humidity: 100%

Dew Point: 58 °F

Location of AcworthLocation

Past Weather in Acworth — Graph

°F

Acworth Temperature Yesterday

Maximum temperature yesterday: 75 °F (at 12:53 pm)
Minimum temperature yesterday: 60 °F (at 4:24 am)
Average temperature yesterday: 66 °F

High & Low Weather Summary for the Past Weeks

 TemperatureHumidityPressure
High90 °F (May 20, 3:53 pm)100% (May 10, 1:53 am)30.16 "Hg (May 10, 1:53 am)
Low50 °F (May 14, 4:53 am)36% (May 16, 3:53 pm)29.46 "Hg (May 24, 3:53 pm)
Average71 °F82%29.93 "Hg
* Reported May 10 1:53 am — May 25 1:53 am, Acworth. Weather by CustomWeather, © 2017

Note: Actual official high and low records may vary slightly from our data, if they occured in-between our weather recording intervals... More about our weather records

Advertising

Acworth Weather History for the Previous 24 Hours

Scroll right to see more
 ConditionsComfort  
Time TempWeatherWind HumidityBarometerVisibility
1:53 am
Thu, May 25
58 °FMostly cloudy.No wind100%29.59 "Hg10 mi
12:53 am59 °FMostly cloudy.No wind96%29.59 "Hg10 mi
11:53 pm
Wed, May 24
60 °FPartly cloudy.No wind93%29.58 "Hg10 mi
10:53 pm60 °FClear.No wind90%29.56 "Hg10 mi
9:53 pm62 °FOvercast.No wind83%29.54 "Hg10 mi
8:53 pm63 °FPassing clouds.No wind81%29.53 "Hg10 mi
7:53 pm66 °FPassing clouds.3 mph68%29.51 "Hg10 mi
6:53 pm70 °FPassing clouds.6 mph64%29.48 "Hg10 mi
5:53 pm73 °FPassing clouds.5 mph55%29.47 "Hg10 mi
4:53 pm74 °FScattered clouds.N/A53%29.47 "Hg10 mi
3:53 pm75 °FScattered clouds.6 mph60%29.46 "Hg10 mi
2:53 pm73 °FPassing clouds.3 mph69%29.47 "Hg10 mi
1:53 pm69 °FCloudy.3 mph81%29.49 "Hg10 mi
12:53 pm75 °FBroken clouds.13 mph71%29.48 "Hg10 mi
12:02 pm72 °FBroken clouds.15 mph81%29.55 "Hg10 mi
10:53 am69 °FCloudy.12 mph93%29.52 "Hg10 mi
10:13 am68 °FMore clouds than sun.7 mph93%29.54 "Hg10 mi
9:53 am68 °FMostly cloudy.7 mph96%29.52 "Hg10 mi
8:53 am68 °FBroken clouds.9 mph96%29.53 "Hg10 mi
8:27 am66 °FBroken clouds.No wind100%29.57 "Hg10 mi
7:53 am65 °FBroken clouds.3 mph100%29.55 "Hg10 mi
7:30 am64 °FBroken clouds.3 mph100%29.58 "Hg10 mi
6:53 am63 °FPassing clouds.5 mph100%29.57 "Hg10 mi
6:03 am63 °FMostly cloudy.7 mph100%29.61 "Hg10 mi
5:53 am63 °FMostly cloudy.7 mph100%29.58 "Hg10 mi
5:01 am62 °FMostly cloudy.No wind100%29.62 "Hg9 mi
4:24 am60 °FPassing clouds.No wind100%29.62 "Hg10 mi
3:53 am61 °FPassing clouds.No wind100%29.60 "Hg10 mi
Weather by CustomWeather, © 2017

See weather overviewHow to use our weather pages